Regional Weather Roundup
Issued by NWS

Home | Current Version | Previous Version | Graphics & Text | Print | Product List | Glossary On
Versions: 1 2 3 4 5 6 7 8 9 10 11 12 13 14 15 16 17 18 19 20 21 22 23 24 25 26 27 28 29 30 31 32 33 34 35 36 37 38 39 40 41 42 43 44 45 46 47 48 49 50
000
ASUS43 KLOT 290206
RWRIL

ILLINOIS REGIONAL WEATHER ROUNDUP
NATIONAL WEATHER SERVICE CHICAGO/ROMEOVILLE IL
900 PM CDT THU AUG 28 2014

NOTE: "FAIR" INDICATES FEW OR NO CLOUDS BELOW 12,000 FEET WITH NO
SIGNIFICANT WEATHER AND/OR OBSTRUCTIONS TO VISIBILITY.

* THESE STATIONS ARE NOT UNDER NWS QUALITY CONTROL. THEY ALSO MAY NOT
  REPORT WEATHER SUCH AS PRECIPITATION OR FOG.

ILZ001-002-007-009-015-016-024-290300-
NORTHWEST ILLINOIS

CITY           SKY/WX    TMP DP  RH WIND       PRES   REMARKS
MOLINE         CLOUDY    70  67  90 SE9       29.97R
STERLING*      CLOUDY    68  64  88 SE10      30.00S
SAVANNA*       CLOUDY    68  65  89 SE6       29.99R
$$

ILZ003-004-008-010-011-017-018-290300-
NORTH CENTRAL ILLINOIS

CITY           SKY/WX    TMP DP  RH WIND       PRES   REMARKS
ROCKFORD       CLOUDY    65  60  84 E6        30.05R
FREEPORT*      CLOUDY    63  60  91 E9        30.04S
ROCHELLE*      CLOUDY    65  63  90 SE6       30.03R
DE KALB*       LGT RAIN  63  61  93 E9        30.05F
PERU*          LGT RAIN  69  67  93 E8        30.02F
$$

ILZ005-006-012>014-019>023-290300-
NORTHEAST ILLINOIS

CITY           SKY/WX    TMP DP  RH WIND       PRES   REMARKS
CHICAGO-OHARE  LGT RAIN  71  61  70 E8        30.06R
CHICAGO-MIDWAY CLOUDY    74  65  73 E7        30.06R
AURORA         LGT RAIN  67  64  90 E5        30.05F
LANSING*       CLOUDY    71  64  79 E5        30.06R
JOLIET*        RAIN      69  65  87 CALM      30.08R
WAUKEGAN       CLOUDY    68  61  78 E3        30.06R
DUPAGE AIRPORT LGT RAIN  68  62  81 E6        30.05S
KANKAKEE*      CLOUDY    71  66  85 CALM      30.05S
WHEELING       CLOUDY    70  64  81 SE3       30.07S
MORRIS*        RAIN      69  68  98 E9        30.04F
ROMEOVILLE*    LGT RAIN  69  66  90 CALM      30.07R
NORTHERLY ISL    N/A     72  63  73 E7          N/A
$$

LMZ740>746-290300-
SOUTHERN LAKE MICHIGAN

STATION/POSITION SKY/WX   TEMP    WIND        PRES    VSBY  WAVE
                          AIR SEA DIR/SP/G                  HT/PER
                          (F)     (DEG/KT/KT) (MB)    (MI)  (FT/S)
SOUTHERN BUOY              69 69   80/ 14/ 16 1018.2R         1/ 3
WAUKEGAN HARBOR            70     100/  9/ 11   N/A
HARRISON CRIB              71      80/ 12/ 13   N/A
BURNHAM HARBOR             72      80/  5/  9   N/A
CALUMET HARBOR             72      60/  6/  9 1016.6R
MICHIGAN CITY              70      70/  7/  9   N/A
MICHIGAN CITY 6N           72 72   90/  8/ 10   N/A           2/ 3
ST. JOSEPH                 72 71  100/ 10/ 12   N/A           1/ 3
$$

ILZ025>027-034>036-040-047-049-050-058-095>099-290300-
WEST-CENTRAL ILLINOIS

CITY           SKY/WX    TMP DP  RH WIND       PRES   REMARKS
QUINCY         CLEAR     73  70  90 E10       29.95S
GALESBURG*     CLOUDY    69  68  94 E8G17     29.99R
MACOMB*        CLOUDY    70  69  98 E6        30.00S
JACKSONVILLE*  MOCLDY    74  71  92 E10       30.01R
PITTSFIELD*    MOCLDY    76  70  82 E8        29.99R
$$

ILZ028>032-037-038-041>044-048-051>054-059>061-290300-
CENTRAL ILLINOIS

CITY           SKY/WX    TMP DP  RH WIND       PRES   REMARKS
PONTIAC        RAIN      73  68  83 CALM      30.06R
DECATUR        MOCLDY    76  70  82 E7        30.02R
PEORIA         CLOUDY    72  69  90 VRB3      30.01S
LACON*         LGT RAIN  69  67  90 S3        30.01R
LINCOLN*       TSTM      71  69  93 E5        30.02R
SPRINGFIELD    TSTM      71  71 100 E16       30.01F FOG
TAYLORVILLE    TSTM      72  70  94 CALM      30.04R
$$

ILZ033-039-045-046-055>057-062-063-290300-
EAST-CENTRAL ILLINOIS

CITY           SKY/WX    TMP DP  RH WIND       PRES   REMARKS
CHAMPAIGN      MOCLDY    74  70  87 E6        30.04R
DANVILLE*      PTCLDY    72  68  87 E5        30.02R
RANTOUL*       MOCLDY    75  67  76 E7        30.04F
MATTOON        MOCLDY    74  70  87 SE5       30.02R
PARIS*         PTCLDY    72  69  90 CALM      30.04S
$$

ILZ079-100>102-290300-
SOUTHWEST ILLINOIS

CITY           SKY/WX    TMP DP  RH WIND       PRES   REMARKS
ALTON          PTCLDY    73  70  88 E7        29.99S
BELLEVILLE     CLOUDY    75  74  99 NE5       29.97F
CAHOKIA*       MOCLDY    77  72  83 SE6       29.97
SPARTA*        LGT RAIN  74  73  98 CALM      30.00S
$$

ILZ064>066-069>071-074>076-080>082-084>086-088>090-092>094-290300-
SOUTH-CENTRAL ILLINOIS

CITY           SKY/WX    TMP DP  RH WIND       PRES   REMARKS
CARBONDALE     CLOUDY    74  70  87 N3        30.00R
CAIRO*         CLOUDY    76  72  88 CALM      29.99S FOG
EFFINGHAM*     RAIN      75  68  78 NW5       30.02S
MARION         CLOUDY    75  72  88 CALM      30.01R FOG
MT. VERNON     CLOUDY    73  68  83 CALM      30.01F
CENTRALIA*     CLOUDY    73  70  91 CALM      30.00F FOG
SALEM*         LGT RAIN  76  74  96 S3        30.01F
METROPOLIS*      N/A     72  72 100 CALM      30.00R FOG
$$

ILZ067-068-072-073-078-083-087-091-290300-
SOUTHEAST ILLINOIS

CITY           SKY/WX    TMP DP  RH WIND       PRES   REMARKS
LAWRENCEVILLE  MOCLDY    78  72  81 S9        30.03R HX  80
FLORA*         MOCLDY    76  72  87 SE5       30.02S
FAIRFIELD*     CLOUDY    75  73  94 SE3       30.02S
HARRISBURG*    CLOUDY    73  73 100 CALM      30.02S FOG
ROBINSON*      MOCLDY    76  73  91 CALM      30.03R
CARMI*         CLOUDY    75  73  95 CALM      30.01S
$$

ABBREVIATIONS USED IN REMARKS
   TC - TEMPERATURE IN CELSIUS
  WCI - WIND CHILL INDEX
   HX - HEAT INDEX
  VSB - VISIBILITY
$$




USA.gov is the U.S. government's official web portal to all federal, state and local government web resources and services.